Location: Unspecified
(35.6961°N, 0.0000°E)
Time: 15:09:43
(UTC+00:00)

Vanguard 2 Rocket - Pass Details

Date: 29 May 2019
Orbit: 554 x 3326 km, 32.9° (Epoch: 19 June)

Event Time Altitude Azimuth Distance (km) Brightness Sun altitude
Rises 01:17:55 0° 205° (SSW) 6,624 - -29.7°
Reaches altitude 10° 01:22:49 10° 196° (SSW) 5,891 - -29.3°
Exits shadow 01:31:59 27° 170° (S) 4,883 10.1 -28.5°
Maximum altitude 01:38:46 33° 141° (SE) 4,620 10.2 -27.9°
Drops below altitude 10° 01:54:23 10° 86° (E) 5,846 11.4 -26.4°
Sets 01:59:06 0° 78° (ENE) 6,579 11.9 -25.9°
